Starlink 31004

operational
NORAD ID: 58528 Int'l Des: 2023-191 Owner: SPXS Country: US Constellation: starlink
LEOCIRCULAR

关于 Starlink 31004

正在加载描述...

实时位置

正在加载3D地球...

即将过境

高度历史

Altitude vs Time

uPlot chart will show altitude changes over time

两行轨道根数

1 58528U 23191W 25310.64037851 .00002935 00000-0 23213-3 0 9992
2 58528 43.0019 54.4117 0001365 284.3510 75.7181 15.02554061106934
Epoch: Nov 6, 2025 • Age: 23 hours

当前状态

高度 562.1 km
速度 7.59 km/s
星下点 39.60°N, 145.96°W
发射日期 Dec 7, 2023
运行时间 1.9 years
类型 internet

技术详情

分类 Payload
质量 730.00 kg
干质量 700.00 kg
总质量 730.00 kg
长度 0.30 m
直径 4.10 m
跨度 29.00 m
形状 Box + pan
制造商 SPXS
平台类型 Starlink V2M
阶段状态 In Orbit
所有者/国家 SPXS/US

大型星座

Loading constellations...